User: anonymous   Login
Location: Waning Moon II Observatory
(30.3730°N, 89.7620°W)
Time: 19:05:36
(UTC-05:00)
Language:

Meteor 1-21 - Orbit

View from above orbital plane
View from above orbital plane
View from above satellite
View from above satellite

Ground track
Ground track

The orbit data is extracted from the following two-line orbital elements,

1  7714U 75023A   17147.68428217 -.00000007 +00000-0 -11316-4 0  9999
2  7714 081.2100 211.6319 0030364 313.0769 046.7859 14.07950483482308
Epoch (UTC): 27 May 2017 16:25:21
Eccentricity: 0.0030364
inclination: 81.2100°
perigee height: 844 km
apogee height: 888 km
right ascension of ascending node: 211.6319°
argument of perigee: 313.0769°
revolutions per day: 14.07950483
mean anomaly at epoch: 46.7859°
orbit number at epoch: 48230

The dashed part of the orbit path shows where the satellite is in the earth's shadow,  

DLR